Regional Weather Roundup
Issued by NWS Sioux Falls, SD

Home | Current Version | Previous Version | Text Only | Print | Product List | Glossary On
Versions: 1 2 3 4 5 6 7 8 9 10 11 12 13 14 15 16 17 18 19 20 21 22 23 24 25 26 27 28 29 30 31 32 33 34 35 36 37 38 39 40 41 42 43 44 45 46 47 48 49 50
000
ASUS43 KFSD 270910
RWRFSD

WEATHER ROUNDUP FOR SE SOUTH DAKOTA/SW MINNESOTA/NW IOWA
NATIONAL WEATHER SERVICE SIOUX FALLS SD
400 AM CDT THU AUG 27 2015

NOTE: "FAIR" INDICATES FEW OR NO CLOUDS BELOW 12,000 FEET WITH NO
SIGNIFICANT WEATHER AND OR OBSTRUCTIONS TO VISIBILITY.


SDZ038>040-050-052>070-271000-
SOUTHEAST SOUTH DAKOTA

CITY           SKY/WX    TMP DP  RH WIND       PRES   REMARKS
BROOKINGS      CLOUDY    61  57  88 SE7       30.06S
CHAMBERLAIN    RAIN      66  64  95 W14G26    30.06R
HURON          LGT RAIN  65  62  90 SE8       29.99F
MADISON        FAIR      63  63 100 S12       30.02F
MITCHELL       CLOUDY    65  62  90 E5        30.00R
SIOUX FALLS    CLOUDY    64  59  83 S9        30.03F
WINNER         LGT RAIN  68  61  78 NE18      29.99F
YANKTON        CLOUDY    63  61  94 E7        30.00S
$$

MNZ071-072-080-081-089-090-097-098-271000-
SOUTHWEST MINNESOTA

CITY           SKY/WX    TMP DP  RH WIND       PRES   REMARKS
FAIRMONT       PTCLDY    55  48  76 S7        30.08S
JACKSON        PTCLDY    59  54  82 S9        30.08F
LUVERNE        CLOUDY    59  55  88 SE3       30.06S
MARSHALL       MOCLDY    57  52  82 SE3       30.05S
MONTEVIDEO     CLOUDY    59  55  88 S6        30.06S
PIPESTONE      CLOUDY    61  57  88 S5        30.05S
REDWOOD FALLS  MOCLDY    59  54  83 E6        30.07R
TRACY          MOCLDY    61  56  82 S8        30.05S
WINDOM         PTCLDY    57  54  88 CALM      30.06F
WORTHINGTON    MOCLDY    59  52  77 S8        30.06F
$$

IAZ001>003-012>014-020>022-031-032-NEZ013-014-SDZ071-271000-
NORTHWEST IOWA

CITY           SKY/WX    TMP DP  RH WIND       PRES   REMARKS
CHEROKEE       MOCLDY    57  56  96 CALM      30.07F
DENISON        CLOUDY    61  54  77 SE7G14    30.06R
ESTHERVILLE    CLEAR     55  53  93 S7        30.08S
LE MARS        CLOUDY    63  61  94 SE5       30.05S
ORANGE CITY    CLOUDY    61  57  88 SE5       30.05F
SHELDON        CLOUDY    59  57  94 SE7       30.05F
SIOUX CITY     CLOUDY    62  58  86 SE9       30.03F
SPENCER        PTCLDY    57  52  83 SE3       30.08S
STORM LAKE     PTCLDY    57  55  94 SE6       30.09S
$$

ABBREVIATIONS USED IN REMARKS
   TC - TEMPERATURE IN CELSIUS
  WCI - WIND CHILL INDEX
   HX - HEAT INDEX
  VSB - VISIBILITY



USA.gov is the U.S. government's official web portal to all federal, state and local government web resources and services.